| time (UTC) | temp C | wind direction | speed KPH | gust KPH | rain 1hr cm | rain 24hr cm | rain mn cm | humidity % | barometer mb |
| 20260506231039 | 5 | 262 | 8.0 | 22.5 | 0.00 | 0.69 | 0.69 | 93 | 1007.6 |
| 20260506230536 | 6 | 272 | 8.0 | 25.7 | 0.00 | 0.69 | 0.69 | 93 | 1007.4 |
| 20260506230037 | 6 | 284 | 14.5 | 25.7 | 0.00 | 0.69 | 0.69 | 93 | 1007.1 |
| 20260506225540 | 6 | 296 | 11.3 | 22.5 | 0.03 | 0.69 | 0.69 | 93 | 1007.3 |
| 20260506225038 | 6 | 311 | 12.9 | 25.7 | 0.03 | 0.69 | 0.69 | 93 | 1007.0 |
| 20260506224536 | 6 | 295 | 16.1 | 25.7 | 0.03 | 0.69 | 0.69 | 93 | 1007.0 |
| 20260506224035 | 6 | 292 | 11.3 | 24.1 | 0.03 | 0.69 | 0.69 | 93 | 1007.0 |
| 20260506223536 | 6 | 279 | 9.7 | 29.0 | 0.03 | 0.69 | 0.69 | 93 | 1007.0 |
| 20260506223034 | 6 | 297 | 11.3 | 22.5 | 0.03 | 0.69 | 0.69 | 93 | 1006.9 |
| 20260506222534 | 6 | 298 | 9.7 | 22.5 | 0.03 | 0.69 | 0.69 | 93 | 1006.9 |
| 20260506222035 | 6 | 292 | 12.9 | 24.1 | 0.03 | 0.69 | 0.69 | 93 | 1006.9 |
| 20260506221533 | 6 | 320 | 12.9 | 27.4 | 0.03 | 0.69 | 0.69 | 93 | 1006.8 |
| 20260506221032 | 6 | 285 | 14.5 | 27.4 | 0.03 | 0.69 | 0.69 | 93 | 1006.8 |
| 20260506220534 | 6 | 263 | 17.7 | 27.4 | 0.03 | 0.69 | 0.69 | 93 | 1006.8 |
| 20260506220032 | 6 | 291 | 12.9 | 30.6 | 0.03 | 0.69 | 0.69 | 93 | 1006.8 |
| 20260506215531 | 6 | 289 | 17.7 | 30.6 | 0.00 | 0.66 | 0.66 | 93 | 1006.6 |
| 20260506215031 | 6 | 296 | 14.5 | 24.1 | 0.00 | 0.66 | 0.66 | 93 | 1006.6 |
| 20260506214531 | 6 | 290 | 14.5 | 22.5 | 0.00 | 0.66 | 0.66 | 93 | 1006.5 |
| 20260506214030 | 6 | 286 | 11.3 | 24.1 | 0.00 | 0.66 | 0.66 | 93 | 1006.5 |
| 20260506213530 | 6 | 286 | 12.9 | 29.0 | 0.00 | 0.66 | 0.66 | 93 | 1006.4 |
| 20260506213030 | 6 | 281 | 14.5 | 29.0 | 0.03 | 0.66 | 0.66 | 93 | 1006.3 |
| 20260506212531 | 6 | 273 | 12.9 | 27.4 | 0.03 | 0.66 | 0.66 | 93 | 1006.2 |
| 20260506212130 | 6 | 306 | 11.3 | 22.5 | 0.03 | 0.66 | 0.66 | 93 | 1006.2 |
| 20260506211530 | 6 | 298 | 12.9 | 22.5 | 0.03 | 0.66 | 0.66 | 93 | 1006.0 |
| 20260506211029 | 6 | 285 | 11.3 | 22.5 | 0.03 | 0.66 | 0.66 | 93 | 1005.9 |
| 20260506210527 | 6 | 317 | 11.3 | 19.3 | 0.05 | 0.66 | 0.66 | 93 | 1005.9 |
| 20260506210034 | 6 | 296 | 11.3 | 19.3 | 0.05 | 0.66 | 0.66 | 93 | 1005.9 |
| 20260506205529 | 6 | 288 | 11.3 | 20.9 | 0.05 | 0.66 | 0.66 | 93 | 1005.9 |
| 20260506205027 | 6 | 296 | 9.7 | 22.5 | 0.08 | 0.66 | 0.66 | 93 | 1005.8 |
| 20260506204527 | 6 | 313 | 11.3 | 22.5 | 0.08 | 0.66 | 0.66 | 93 | 1005.6 |
| 20260506204027 | 6 | 296 | 8.0 | 17.7 | 0.08 | 0.66 | 0.66 | 93 | 1005.8 |
| 20260506203529 | 6 | 297 | 9.7 | 17.7 | 0.10 | 0.66 | 0.66 | 93 | 1005.8 |
| 20260506203027 | 6 | 303 | 8.0 | 20.9 | 0.08 | 0.64 | 0.64 | 93 | 1005.7 |
| 20260506202527 | 6 | 290 | 11.3 | 20.9 | 0.08 | 0.64 | 0.64 | 93 | 1005.7 |
| 20260506202026 | 6 | 298 | 8.0 | 16.1 | 0.08 | 0.64 | 0.64 | 93 | 1005.7 |
| 20260506201530 | 6 | 296 | 9.7 | 17.7 | 0.08 | 0.64 | 0.64 | 93 | 1005.6 |
| 20260506201027 | 6 | 302 | 9.7 | 19.3 | 0.08 | 0.64 | 0.64 | 93 | 1005.6 |
| 20260506200525 | 6 | 311 | 8.0 | 19.3 | 0.05 | 0.61 | 0.61 | 93 | 1005.6 |
| 20260506200036 | 6 | 294 | 8.0 | 14.5 | 0.05 | 0.61 | 0.61 | 93 | 1005.5 |
| 20260506195525 | 6 | 310 | 8.0 | 17.7 | 0.05 | 0.61 | 0.61 | 93 | 1005.5 |
| 20260506195027 | 6 | 278 | 9.7 | 29.0 | 0.03 | 0.58 | 0.58 | 93 | 1005.5 |
| 20260506194525 | 6 | 302 | 16.1 | 29.0 | 0.05 | 0.58 | 0.58 | 93 | 1005.5 |
| 20260506194024 | 6 | 298 | 12.9 | 24.1 | 0.05 | 0.58 | 0.58 | 93 | 1005.5 |
| 20260506193524 | 6 | 321 | 11.3 | 16.1 | 0.03 | 0.56 | 0.56 | 93 | 1005.3 |
| 20260506193027 | 6 | 306 | 9.7 | 17.7 | 0.03 | 0.56 | 0.56 | 93 | 1005.4 |
| 20260506192524 | 6 | 279 | 9.7 | 17.7 | 0.03 | 0.56 | 0.56 | 93 | 1005.2 |
| 20260506192023 | 6 | 309 | 11.3 | 17.7 | 0.03 | 0.56 | 0.56 | 93 | 1005.2 |
| 20260506191523 | 6 | 313 | 11.3 | 17.7 | 0.03 | 0.56 | 0.56 | 93 | 1005.1 |
| 20260506191022 | 6 | 317 | 9.7 | 17.7 | 0.03 | 0.56 | 0.56 | 93 | 1005.1 |
| 20260506190525 | 7 | 288 | 8.0 | 12.9 | 0.03 | 0.56 | 0.56 | 93 | 1005.0 |
| 20260506190021 | 7 | 304 | 6.4 | 12.9 | 0.03 | 0.56 | 0.56 | 93 | 1004.9 |
| 20260506185521 | 7 | 296 | 4.8 | 12.9 | 0.03 | 0.56 | 0.56 | 93 | 1004.8 |
| 20260506185022 | 7 | 291 | 6.4 | 14.5 | 0.03 | 0.56 | 0.56 | 93 | 1004.8 |
| 20260506184521 | 7 | 281 | 6.4 | 12.9 | 0.00 | 0.53 | 0.53 | 93 | 1004.8 |
| 20260506184021 | 7 | 265 | 6.4 | 12.9 | 0.00 | 0.53 | 0.53 | 93 | 1004.9 |
| 20260506183521 | 6 | 287 | 4.8 | 14.5 | 0.00 | 0.53 | 0.53 | 93 | 1004.7 |
| 20260506183021 | 6 | 288 | 3.2 | 14.5 | 0.00 | 0.53 | 0.53 | 93 | 1004.7 |
| 20260506182520 | 6 | 308 | 4.8 | 11.3 | 0.00 | 0.53 | 0.53 | 93 | 1004.7 |
| 20260506182020 | 6 | 305 | 1.6 | 14.5 | 0.00 | 0.53 | 0.53 | 93 | 1004.7 |
| 20260506181521 | 6 | 320 | 9.7 | 16.1 | 0.00 | 0.53 | 0.53 | 93 | 1004.6 |
| 20260506181020 | 6 | 276 | 8.0 | 16.1 | 0.00 | 0.53 | 0.53 | 93 | 1004.7 |
| 20260506180520 | 6 | 280 | 1.6 | 12.9 | 0.00 | 0.53 | 0.53 | 93 | 1004.8 |
| 20260506180020 | 6 | 300 | 4.8 | 14.5 | 0.00 | 0.53 | 0.53 | 93 | 1004.5 |
| 20260506175520 | 6 | 309 | 8.0 | 14.5 | 0.00 | 0.53 | 0.53 | 93 | 1004.6 |
| 20260506175018 | 6 | 295 | 4.8 | 9.7 | 0.03 | 0.53 | 0.53 | 93 | 1004.6 |
| 20260506174519 | 6 | 288 | 4.8 | 11.3 | 0.03 | 0.53 | 0.53 | 93 | 1004.5 |
| 20260506174018 | 6 | 296 | 1.6 | 8.0 | 0.03 | 0.53 | 0.53 | 93 | 1004.4 |
| 20260506173518 | 6 | 302 | 1.6 | 8.0 | 0.03 | 0.53 | 0.53 | 93 | 1004.4 |
| 20260506173022 | 6 | 301 | 1.6 | 6.4 | 0.03 | 0.53 | 0.53 | 93 | 1004.4 |
| 20260506172518 | 6 | 306 | 1.6 | 9.7 | 0.03 | 0.53 | 0.53 | 93 | 1004.5 |
| 20260506172017 | 6 | 300 | 4.8 | 9.7 | 0.03 | 0.53 | 0.53 | 93 | 1004.5 |
| 20260506171518 | 6 | 305 | 4.8 | 8.0 | 0.03 | 0.53 | 0.53 | 93 | 1004.6 |
| 20260506171021 | 6 | 295 | 3.2 | 6.4 | 0.05 | 0.53 | 0.53 | 93 | 1004.6 |
| 20260506170518 | 6 | 289 | 3.2 | 6.4 | 0.05 | 0.53 | 0.53 | 93 | 1004.5 |
| 20260506170016 | 6 | 288 | 3.2 | 6.4 | 0.08 | 0.53 | 0.53 | 93 | 1004.7 |
| 20260506165516 | 6 | 298 | 3.2 | 8.0 | 0.10 | 0.53 | 0.53 | 93 | 1004.6 |
| 20260506165017 | 6 | 299 | 3.2 | 8.0 | 0.08 | 0.51 | 0.51 | 93 | 1004.6 |
| 20260506164516 | 6 | 321 | 4.8 | 12.9 | 0.08 | 0.51 | 0.51 | 93 | 1004.5 |
| 20260506164015 | 6 | 292 | 4.8 | 12.9 | 0.08 | 0.51 | 0.51 | 93 | 1004.6 |
| 20260506163516 | 6 | 298 | 6.4 | 17.7 | 0.10 | 0.51 | 0.51 | 93 | 1004.7 |
| 20260506163017 | 6 | 304 | 9.7 | 17.7 | 0.10 | 0.51 | 0.51 | 93 | 1004.7 |
| 20260506162514 | 6 | 331 | 9.7 | 16.1 | 0.13 | 0.51 | 0.51 | 93 | 1004.7 |
| 20260506162013 | 6 | 304 | 8.0 | 17.7 | 0.13 | 0.51 | 0.51 | 93 | 1004.7 |
| 20260506161513 | 7 | 300 | 9.7 | 16.1 | 0.13 | 0.51 | 0.51 | 93 | 1004.8 |
| 20260506161011 | 7 | 289 | 3.2 | 6.4 | 0.10 | 0.48 | 0.48 | 93 | 1004.6 |
| 20260506160511 | 7 | 306 | 0.0 | 11.3 | 0.08 | 0.46 | 0.46 | 93 | 1004.4 |
| 20260506160015 | 7 | 304 | 6.4 | 11.3 | 0.08 | 0.46 | 0.46 | 93 | 1004.6 |
| 20260506155514 | 7 | 328 | 4.8 | 17.7 | 0.05 | 0.43 | 0.43 | 93 | 1004.6 |
| 20260506155009 | 7 | 310 | 9.7 | 17.7 | 0.05 | 0.43 | 0.43 | 92 | 1004.6 |
| 20260506154508 | 7 | 332 | 9.7 | 19.3 | 0.05 | 0.43 | 0.43 | 92 | 1004.5 |
| 20260506153507 | 8 | 325 | 12.9 | 19.3 | 0.05 | 0.41 | 0.41 | 92 | 1004.3 |
| 20260506153007 | 9 | 341 | 11.3 | 19.3 | 0.05 | 0.41 | 0.41 | 92 | 1004.4 |
| 20260506152506 | 10 | 302 | 12.9 | 17.7 | 0.03 | 0.38 | 0.38 | 92 | 1004.4 |
| 20260506152005 | 10 | 318 | 9.7 | 14.5 | 0.03 | 0.38 | 0.38 | 93 | 1004.2 |
| 20260506151507 | 11 | 325 | 4.8 | 12.9 | 0.05 | 0.38 | 0.38 | 93 | 1004.1 |
| 20260506151005 | 11 | 309 | 3.2 | 12.9 | 0.05 | 0.38 | 0.38 | 93 | 1004.0 |
| 20260506150504 | 11 | 301 | 4.8 | 8.0 | 0.08 | 0.38 | 0.38 | 93 | 1004.0 |
| 20260506150005 | 11 | 292 | 3.2 | 8.0 | 0.08 | 0.38 | 0.38 | 92 | 1004.1 |
| 20260506145503 | 11 | 299 | 4.8 | 17.7 | 0.10 | 0.38 | 0.38 | 93 | 1004.1 |
| 20260506145004 | 11 | 220 | 3.2 | 17.7 | 0.13 | 0.38 | 0.38 | 93 | 1004.1 |
| 20260506144503 | 11 | 221 | 4.8 | 12.9 | 0.13 | 0.38 | 0.38 | 93 | 1004.1 |
| 20260506144003 | 11 | 209 | 6.4 | 14.5 | 0.13 | 0.36 | 0.36 | 94 | 1004.1 |
| 20260506143600 | 11 | 182 | 6.4 | 14.5 | 0.15 | 0.36 | 0.36 | 94 | 1004.3 |
| 20260506143102 | 11 | 219 | 8.0 | 14.5 | 0.18 | 0.36 | 0.36 | 94 | 1004.3 |
| 20260506142558 | 11 | 225 | 3.2 | 14.5 | 0.18 | 0.36 | 0.36 | 94 | 1004.4 |
| 20260506142057 | 11 | 205 | 4.8 | 14.5 | 0.20 | 0.36 | 0.36 | 94 | 1004.4 |
| 20260506141610 | 11 | 211 | 4.8 | 14.5 | 0.18 | 0.33 | 0.33 | 94 | 1004.3 |
| 20260506141055 | 10 | 205 | 3.2 | 8.0 | 0.18 | 0.33 | 0.33 | 94 | 1004.4 |
| 20260506140555 | 10 | 239 | 0.0 | 1.6 | 0.15 | 0.30 | 0.30 | 93 | 1004.4 |
| 20260506140053 | 10 | 319 | 0.0 | 3.2 | 0.15 | 0.30 | 0.30 | 93 | 1004.6 |
| 20260506135552 | 10 | 319 | 1.6 | 4.8 | 0.13 | 0.28 | 0.28 | 93 | 1004.7 |
| 20260506135052 | 10 | 319 | 1.6 | 4.8 | 0.10 | 0.25 | 0.25 | 93 | 1004.7 |
| 20260506134552 | 10 | 319 | 3.2 | 4.8 | 0.10 | 0.25 | 0.25 | 93 | 1004.9 |
| 20260506134052 | 10 | 319 | 1.6 | 6.4 | 0.08 | 0.23 | 0.23 | 93 | 1004.8 |
| 20260506133552 | 10 | 319 | 3.2 | 6.4 | 0.08 | 0.20 | 0.20 | 93 | 1004.8 |
| 20260506133101 | 10 | 313 | 3.2 | 6.4 | 0.05 | 0.18 | 0.18 | 93 | 1004.8 |
| 20260506132551 | 10 | 211 | 0.0 | 6.4 | 0.05 | 0.18 | 0.18 | 93 | 1004.6 |
| 20260506132050 | 10 | 193 | 0.0 | 4.8 | 0.03 | 0.15 | 0.15 | 93 | 1004.6 |
| 20260506131554 | 10 | 125 | 0.0 | 3.2 | 0.03 | 0.15 | 0.15 | 93 | 1004.5 |
| 20260506131050 | 10 | 125 | 1.6 | 3.2 | 0.03 | 0.15 | 0.15 | 93 | 1004.4 |
| 20260506130550 | 10 | 124 | 1.6 | 3.2 | 0.03 | 0.15 | 0.15 | 93 | 1004.3 |
| 20260506130050 | 10 | 125 | 0.0 | 4.8 | 0.03 | 0.15 | 0.15 | 94 | 1004.4 |
| 20260506125548 | 9 | 125 | 0.0 | 4.8 | 0.03 | 0.15 | 0.15 | 93 | 1004.3 |
| 20260506125047 | 9 | 125 | 1.6 | 4.8 | 0.03 | 0.15 | 0.15 | 93 | 1004.2 |
| 20260506124548 | 9 | 126 | 1.6 | 3.2 | 0.03 | 0.15 | 0.15 | 93 | 1004.3 |
| 20260506124047 | 9 | 126 | 1.6 | 3.2 | 0.03 | 0.15 | 0.15 | 93 | 1004.2 |
| 20260506123546 | 9 | 126 | 0.0 | 3.2 | 0.00 | 0.13 | 0.13 | 93 | 1004.4 |
| 20260506123046 | 8 | 126 | 1.6 | 3.2 | 0.00 | 0.13 | 0.13 | 93 | 1004.5 |
| 20260506122543 | 8 | 126 | 0.0 | 4.8 | 0.03 | 0.13 | 0.13 | 93 | 1004.6 |
| 20260506122043 | 8 | 126 | 1.6 | 6.4 | 0.03 | 0.13 | 0.13 | 93 | 1004.5 |
| 20260506121548 | 8 | 126 | 3.2 | 6.4 | 0.03 | 0.13 | 0.13 | 93 | 1004.6 |
| 20260506121041 | 8 | 192 | 3.2 | 4.8 | 0.03 | 0.13 | 0.13 | 93 | 1004.7 |
| 20260506120540 | 8 | 192 | 0.0 | 4.8 | 0.03 | 0.13 | 0.13 | 93 | 1004.7 |
| 20260506120106 | 8 | 194 | 1.6 | 4.8 | 0.03 | 0.13 | 0.13 | 93 | 1004.7 |
| 20260506115539 | 8 | 195 | 3.2 | 4.8 | 0.03 | 0.13 | 0.13 | 93 | 1004.9 |
| 20260506115138 | 8 | 202 | 1.6 | 4.8 | 0.05 | 0.13 | 0.13 | 93 | 1004.9 |
| 20260506114543 | 8 | 215 | 1.6 | 4.8 | 0.05 | 0.13 | 0.13 | 93 | 1005.2 |
| 20260506114037 | 8 | 302 | 0.0 | 3.2 | 0.05 | 0.13 | 0.13 | 93 | 1005.2 |
| 20260506113537 | 8 | 302 | 0.0 | 1.6 | 0.05 | 0.13 | 0.13 | 93 | 1005.3 |
| 20260506113038 | 8 | 302 | 0.0 | 1.6 | 0.05 | 0.13 | 0.13 | 93 | 1005.5 |
| 20260506112538 | 8 | 302 | 0.0 | 1.6 | 0.03 | 0.10 | 0.10 | 93 | 1005.4 |
| 20260506112036 | 8 | 302 | 0.0 | 0.0 | 0.03 | 0.10 | 0.10 | 93 | 1005.4 |
| 20260506111539 | 8 | 302 | 0.0 | 4.8 | 0.03 | 0.10 | 0.10 | 93 | 1005.5 |
| 20260506111036 | 8 | 302 | 1.6 | 4.8 | 0.05 | 0.10 | 0.10 | 93 | 1005.5 |
| 20260506110536 | 8 | 302 | 3.2 | 6.4 | 0.05 | 0.10 | 0.10 | 93 | 1005.6 |
| 20260506110036 | 8 | 301 | 1.6 | 4.8 | 0.05 | 0.10 | 0.10 | 93 | 1005.5 |
| 20260506105538 | 8 | 39 | 0.0 | 3.2 | 0.05 | 0.10 | 0.10 | 93 | 1005.4 |
| 20260506105036 | 8 | 39 | 0.0 | 3.2 | 0.03 | 0.08 | 0.08 | 93 | 1005.3 |
| 20260506104535 | 8 | 40 | 0.0 | 4.8 | 0.03 | 0.08 | 0.08 | 93 | 1005.0 |
| 20260506104035 | 7 | 40 | 1.6 | 8.0 | 0.05 | 0.08 | 0.08 | 93 | 1005.1 |
| 20260506103535 | 7 | 251 | 1.6 | 8.0 | 0.05 | 0.08 | 0.08 | 93 | 1005.2 |
| 20260506103036 | 7 | 325 | 3.2 | 4.8 | 0.05 | 0.08 | 0.08 | 93 | 1005.1 |
| 20260506102535 | 7 | 281 | 1.6 | 4.8 | 0.05 | 0.08 | 0.08 | 93 | 1005.1 |
| 20260506102034 | 7 | 279 | 1.6 | 4.8 | 0.05 | 0.08 | 0.08 | 93 | 1005.1 |
| 20260506101533 | 7 | 287 | 1.6 | 4.8 | 0.05 | 0.08 | 0.08 | 93 | 1005.0 |
| 20260506101033 | 7 | 223 | 0.0 | 0.0 | 0.05 | 0.05 | 0.05 | 93 | 1005.0 |
| 20260506100533 | 7 | 217 | 0.0 | 3.2 | 0.05 | 0.05 | 0.05 | 93 | 1005.0 |
| 20260506100034 | 7 | 217 | 0.0 | 4.8 | 0.05 | 0.05 | 0.05 | 93 | 1005.1 |
| 20260506095533 | 7 | 318 | 0.0 | 4.8 | 0.05 | 0.05 | 0.05 | 93 | 1005.3 |
| 20260506095033 | 7 | 325 | 1.6 | 8.0 | 0.05 | 0.05 | 0.05 | 93 | 1005.0 |
| 20260506094536 | 7 | 205 | 1.6 | 11.3 | 0.05 | 0.05 | 0.05 | 93 | 1005.2 |
| 20260506094032 | 7 | 202 | 6.4 | 11.3 | 0.03 | 0.03 | 0.03 | 92 | 1004.9 |
| 20260506093531 | 7 | 279 | 3.2 | 6.4 | 0.03 | 0.03 | 0.03 | 92 | 1005.5 |
| 20260506093043 | 7 | 314 | 1.6 | 8.0 | 0.03 | 0.03 | 0.03 | 92 | 1005.3 |
| 20260506092530 | 7 | 292 | 1.6 | 6.4 | 0.03 | 0.03 | 0.03 | 92 | 1005.3 |
| 20260506092131 | 7 | 335 | 3.2 | 6.4 | 0.03 | 0.03 | 0.03 | 92 | 1005.2 |
| 20260506091529 | 7 | 338 | 1.6 | 6.4 | 0.03 | 0.03 | 0.03 | 92 | 1005.1 |
| 20260506091029 | 7 | 325 | 3.2 | 4.8 | 0.00 | 0.00 | 0.00 | 92 | 1005.0 |
| 20260506090528 | 7 | 308 | 1.6 | 4.8 | 0.00 | 0.00 | 0.00 | 92 | 1005.1 |
| 20260506090028 | 7 | 307 | 0.0 | 6.4 | 0.00 | 0.00 | 0.00 | 92 | 1005.3 |
| 20260506085527 | 7 | 307 | 3.2 | 6.4 | 0.00 | 0.00 | 0.00 | 92 | 1005.4 |
| 20260506085027 | 7 | 64 | 3.2 | 9.7 | 0.00 | 0.00 | 0.00 | 92 | 1005.3 |
| 20260506084527 | 7 | 103 | 1.6 | 9.7 | 0.00 | 0.00 | 0.00 | 92 | 1005.2 |
| 20260506084027 | 7 | 113 | 1.6 | 6.4 | 0.00 | 0.00 | 0.00 | 92 | 1005.1 |
| 20260506083530 | 7 | 80 | 4.8 | 6.4 | 0.00 | 0.00 | 0.00 | 92 | 1005.0 |
| 20260506083025 | 7 | 85 | 4.8 | 9.7 | 0.00 | 0.00 | 0.00 | 92 | 1005.0 |
| 20260506082524 | 7 | 88 | 4.8 | 9.7 | 0.00 | 0.00 | 0.00 | 92 | 1005.1 |
| 20260506082025 | 7 | 115 | 0.0 | 4.8 | 0.00 | 0.00 | 0.00 | 92 | 1005.2 |
| 20260506081523 | 7 | 115 | 0.0 | 4.8 | 0.00 | 0.00 | 0.00 | 92 | 1005.4 |
| 20260506081023 | 7 | 119 | 1.6 | 8.0 | 0.00 | 0.00 | 0.00 | 92 | 1005.2 |
| 20260506080526 | 7 | 97 | 3.2 | 8.0 | 0.00 | 0.00 | 0.00 | 92 | 1005.0 |
| 20260506073518 | 7 | 302 | 8.0 | 12.9 | 0.00 | 0.00 | 0.00 | 91 | 1006.4 |
| 20260506073017 | 7 | 304 | 0.0 | 1.6 | 0.00 | 0.00 | 0.00 | 91 | 1006.1 |
| 20260506072517 | 7 | 303 | 0.0 | 0.0 | 0.00 | 0.00 | 0.00 | 91 | 1006.0 |
| 20260506072016 | 7 | 303 | 0.0 | 3.2 | 0.00 | 0.00 | 0.00 | 91 | 1006.0 |
| 20260506071517 | 7 | 304 | 0.0 | 3.2 | 0.00 | 0.00 | 0.00 | 91 | 1006.0 |
| 20260506071014 | 7 | 304 | 0.0 | 3.2 | 0.00 | 0.00 | 0.00 | 91 | 1006.3 |
| 20260506070515 | 7 | 304 | 0.0 | 0.0 | 0.00 | 0.00 | 0.00 | 91 | 1006.3 |
| 20260506062509 | 7 | 302 | 3.2 | 6.4 | 0.00 | 0.00 | 0.00 | 91 | 1006.6 |
| 20260506062008 | 7 | 302 | 4.8 | 6.4 | 0.00 | 0.00 | 0.00 | 90 | 1006.6 |
| 20260506061507 | 7 | 296 | 3.2 | 9.7 | 0.00 | 0.00 | 0.00 | 90 | 1006.6 |
| 20260506061012 | 7 | 309 | 4.8 | 9.7 | 0.00 | 0.00 | 0.00 | 90 | 1006.7 |
| 20260506060506 | 7 | 309 | 4.8 | 8.0 | 0.00 | 0.00 | 0.00 | 90 | 1006.8 |
| 20260506051057 | 8 | 299 | 3.2 | 6.4 | 0.00 | 0.00 | 0.00 | 88 | 1007.2 |
| 20260506050559 | 8 | 308 | 3.2 | 6.4 | 0.00 | 0.00 | 0.00 | 88 | 1007.3 |
| 20260506050114 | 8 | 309 | 1.6 | 6.4 | 0.00 | 0.00 | 0.00 | 87 | 1007.3 |
| 20260506045055 | 8 | 302 | 1.6 | 6.4 | 0.00 | 0.00 | 0.00 | 87 | 1007.2 |
| 20260506044601 | 8 | 310 | 4.8 | 8.0 | 0.00 | 0.00 | 0.00 | 86 | 1007.3 |
| 20260506044052 | 8 | 306 | 3.2 | 8.0 | 0.00 | 0.00 | 0.00 | 86 | 1007.3 |
| 20260506043554 | 8 | 295 | 3.2 | 11.3 | 0.00 | 0.00 | 0.00 | 86 | 1007.6 |
| 20260506043051 | 9 | 273 | 3.2 | 11.3 | 0.00 | 0.00 | 0.00 | 86 | 1007.4 |
| 20260506042549 | 9 | 306 | 4.8 | 12.9 | 0.00 | 0.00 | 0.00 | 86 | 1007.6 |
| 20260506040517 | 9 | 304 | 3.2 | 8.0 | 0.00 | 0.00 | 0.00 | 85 | 1007.5 |
| 20260506040017 | 10 | 304 | 3.2 | 6.4 | 0.00 | 0.00 | 0.00 | 85 | 1007.6 |
| 20260506035517 | 10 | 309 | 1.6 | 6.4 | 0.00 | 0.00 | 0.00 | 85 | 1007.5 |
| 20260506035016 | 10 | 292 | 0.0 | 6.4 | 0.00 | 0.00 | 0.00 | 85 | 1007.7 |
| 20260506034516 | 10 | 301 | 3.2 | 6.4 | 0.00 | 0.00 | 0.00 | 85 | 1007.6 |
| 20260506034018 | 10 | 300 | 3.2 | 8.0 | 0.00 | 0.00 | 0.00 | 84 | 1007.6 |
| 20260506033514 | 10 | 308 | 4.8 | 14.5 | 0.00 | 0.00 | 0.00 | 84 | 1007.7 |
| 20260506033016 | 10 | 303 | 6.4 | 14.5 | 0.00 | 0.00 | 0.00 | 84 | 1007.6 |
| 20260506032514 | 10 | 302 | 6.4 | 12.9 | 0.00 | 0.00 | 0.00 | 83 | 1007.8 |
| 20260506032014 | 10 | 313 | 6.4 | 12.9 | 0.00 | 0.00 | 0.00 | 83 | 1007.8 |
| 20260506031516 | 10 | 295 | 3.2 | 8.0 | 0.00 | 0.00 | 0.00 | 83 | 1007.5 |
| 20260506031013 | 10 | 292 | 3.2 | 8.0 | 0.00 | 0.00 | 0.00 | 83 | 1007.4 |
| 20260506030512 | 10 | 305 | 1.6 | 8.0 | 0.00 | 0.00 | 0.00 | 83 | 1007.5 |
| 20260506030012 | 10 | 281 | 3.2 | 8.0 | 0.00 | 0.00 | 0.00 | 84 | 1007.7 |
| 20260506025516 | 10 | 264 | 0.0 | 6.4 | 0.00 | 0.00 | 0.00 | 83 | 1007.5 |
| 20260506025012 | 10 | 292 | 0.0 | 6.4 | 0.00 | 0.00 | 0.00 | 83 | 1007.4 |
| 20260506024511 | 10 | 303 | 0.0 | 3.2 | 0.00 | 0.00 | 0.00 | 83 | 1007.7 |
| 20260506024011 | 10 | 303 | 0.0 | 4.8 | 0.00 | 0.00 | 0.00 | 83 | 1007.7 |
| 20260506023510 | 10 | 257 | 0.0 | 4.8 | 0.00 | 0.00 | 0.00 | 83 | 1007.7 |
| 20260506023010 | 10 | 237 | 1.6 | 6.4 | 0.00 | 0.00 | 0.00 | 83 | 1007.8 |
| 20260506022509 | 10 | 233 | 1.6 | 8.0 | 0.00 | 0.00 | 0.00 | 83 | 1007.7 |
| 20260506022008 | 10 | 299 | 1.6 | 8.0 | 0.00 | 0.00 | 0.00 | 83 | 1007.5 |
| 20260506021507 | 10 | 305 | 3.2 | 8.0 | 0.00 | 0.00 | 0.00 | 83 | 1007.4 |
| 20260506021006 | 10 | 294 | 1.6 | 6.4 | 0.00 | 0.00 | 0.00 | 84 | 1007.6 |
| 20260506020508 | 10 | 288 | 1.6 | 4.8 | 0.00 | 0.00 | 0.00 | 84 | 1007.5 |
| 20260506020007 | 10 | 289 | 0.0 | 9.7 | 0.00 | 0.00 | 0.00 | 84 | 1007.6 |
| 20260506015505 | 10 | 287 | 1.6 | 9.7 | 0.00 | 0.00 | 0.00 | 84 | 1007.4 |
| 20260506015005 | 11 | 292 | 3.2 | 14.5 | 0.00 | 0.00 | 0.00 | 84 | 1007.3 |
| 20260506014505 | 11 | 306 | 9.7 | 14.5 | 0.00 | 0.00 | 0.00 | 84 | 1007.4 |
| 20260506014003 | 11 | 309 | 6.4 | 17.7 | 0.00 | 0.00 | 0.00 | 84 | 1007.3 |
| 20260506013502 | 11 | 309 | 8.0 | 17.7 | 0.00 | 0.00 | 0.00 | 84 | 1007.0 |
| 20260506013003 | 11 | 320 | 8.0 | 16.1 | 0.00 | 0.00 | 0.00 | 85 | 1007.0 |
| 20260506012502 | 11 | 322 | 8.0 | 16.1 | 0.00 | 0.00 | 0.00 | 84 | 1007.0 |
| 20260506012002 | 11 | 313 | 8.0 | 17.7 | 0.00 | 0.00 | 0.00 | 84 | 1007.0 |
| 20260506011600 | 11 | 301 | 9.7 | 22.5 | 0.00 | 0.00 | 0.00 | 84 | 1007.1 |
| 20260506011059 | 11 | 320 | 14.5 | 22.5 | 0.00 | 0.00 | 0.00 | 84 | 1007.2 |
| 20260506010558 | 11 | 308 | 9.7 | 20.9 | 0.00 | 0.00 | 0.00 | 84 | 1007.1 |
| 20260506010100 | 11 | 311 | 16.1 | 20.9 | 0.00 | 0.00 | 0.00 | 84 | 1006.9 |
| 20260506005556 | 12 | 312 | 11.3 | 19.3 | 0.00 | 0.00 | 0.00 | 85 | 1006.5 |
| 20260506005055 | 12 | 29 | 12.9 | 19.3 | 0.00 | 0.00 | 0.00 | 86 | 1006.9 |
| 20260506004624 | 12 | 272 | 11.3 | 17.7 | 0.00 | 0.00 | 0.00 | 86 | 1007.2 |
| 20260506004050 | 12 | 316 | 9.7 | 19.3 | 0.00 | 0.00 | 0.00 | 86 | 1006.4 |
| 20260506003550 | 12 | 351 | 11.3 | 19.3 | 0.00 | 0.00 | 0.00 | 86 | 1006.0 |
| 20260506003049 | 13 | 313 | 12.9 | 20.9 | 0.00 | 0.00 | 0.00 | 86 | 1005.9 |
| 20260506002548 | 13 | 304 | 11.3 | 27.4 | 0.00 | 0.00 | 0.00 | 86 | 1005.9 |
| 20260506002052 | 13 | 292 | 16.1 | 27.4 | 0.00 | 0.00 | 0.00 | 85 | 1005.7 |
| 20260506001547 | 14 | 291 | 12.9 | 20.9 | 0.00 | 0.00 | 0.00 | 85 | 1005.8 |
| 20260506001047 | 15 | 292 | 11.3 | 19.3 | 0.00 | 0.00 | 0.00 | 83 | 1005.6 |
| 20260506000545 | 15 | 287 | 4.8 | 8.0 | 0.00 | 0.00 | 0.00 | 82 | 1005.3 |
| 20260506000047 | 15 | 11 | 0.0 | 6.4 | 0.00 | 0.00 | 0.00 | 80 | 1005.1 |
| 20260505235545 | 15 | 188 | 0.0 | 11.3 | 0.00 | 0.00 | 0.00 | 79 | 1005.1 |
| 20260505235048 | 16 | 188 | 1.6 | 11.3 | 0.00 | 0.00 | 0.00 | 78 | 1005.1 |
| 20260505234607 | 16 | 220 | 4.8 | 11.3 | 0.00 | 0.00 | 0.00 | 76 | 1005.1 |
| 20260505234044 | 16 | 196 | 6.4 | 12.9 | 0.00 | 0.00 | 0.00 | 76 | 1005.1 |
| 20260505233543 | 16 | 223 | 3.2 | 9.7 | 0.00 | 0.00 | 0.00 | 76 | 1004.8 |
| 20260505233043 | 16 | 204 | 3.2 | 8.0 | 0.00 | 0.00 | 0.00 | 75 | 1004.7 |
| 20260505232543 | 16 | 234 | 1.6 | 8.0 | 0.00 | 0.00 | 0.00 | 74 | 1004.5 |
| 20260505232046 | 16 | 267 | 0.0 | 8.0 | 0.00 | 0.00 | 0.00 | 73 | 1004.4 |
| 20260505231542 | 16 | 301 | 0.0 | 4.8 | 0.00 | 0.00 | 0.00 | 73 | 1004.3 |